Location: Kershaw
(34.5481°N, 80.5823°W)
Time: 20:01:23
(UTC+00:00)

deb Explorer IX - Pass Details

Date: 06 October 2022
Orbit: 533 x 1057 km, 38.8° (Epoch: 06 December)

Event Time Altitude Azimuth Distance (km) Brightness Sun altitude
Exits shadow 10:22:52 17° 247° (WSW) 1,527 ? -12.7°
Maximum altitude 10:26:16 86° 161° (SSE) 653 ? -12.0°
Drops below altitude 10° 10:31:23 10° 71° (ENE) 2,216 ? -11.0°
Sets 10:34:01 0° 71° (ENE) 3,235 ? -10.4°
